| time (UTC) | temp F | wind direction | speed MPH | gust MPH | rain 1hr in | rain 24hr in | rain mn in | humidity % | barometer mb |
| 20260507042340 | 55 | 211 | 8.0 | 9.0 | 0.00 | 0.00 | 0.00 | 79 | 1010.1 |
| 20260507041840 | 55 | 201 | 2.0 | 6.0 | 0.00 | 0.00 | 0.00 | 79 | 1009.9 |
| 20260507040840 | 55 | 169 | 2.0 | 5.0 | 0.00 | 0.00 | 0.00 | 79 | 1009.9 |
| 20260507035840 | 55 | 264 | 2.0 | 6.0 | 0.00 | 0.00 | 0.00 | 80 | 1009.7 |
| 20260507035340 | 55 | 221 | 4.0 | 5.0 | 0.00 | 0.00 | 0.00 | 80 | 1009.7 |
| 20260507034839 | 55 | 203 | 2.0 | 5.0 | 0.00 | 0.00 | 0.00 | 80 | 1009.7 |
| 20260507034340 | 55 | 210 | 2.0 | 5.0 | 0.00 | 0.00 | 0.00 | 80 | 1009.6 |
| 20260507033340 | 55 | 206 | 3.0 | 4.0 | 0.00 | 0.00 | 0.00 | 79 | 1009.5 |
| 20260507032340 | 56 | 196 | 3.0 | 4.0 | 0.00 | 0.00 | 0.00 | 79 | 1009.9 |
| 20260507031840 | 56 | 202 | 2.0 | 6.0 | 0.00 | 0.00 | 0.00 | 78 | 1009.5 |
| 20260507031340 | 56 | 220 | 4.0 | 6.0 | 0.00 | 0.00 | 0.00 | 78 | 1009.4 |
| 20260507030840 | 56 | 219 | 1.0 | 4.0 | 0.00 | 0.00 | 0.00 | 78 | 1009.5 |
| 20260507025841 | 56 | 227 | 2.0 | 7.0 | 0.00 | 0.00 | 0.00 | 78 | 1009.2 |
| 20260507025340 | 56 | 220 | 2.0 | 7.0 | 0.00 | 0.00 | 0.00 | 78 | 1009.0 |
| 20260507024840 | 57 | 194 | 4.0 | 5.0 | 0.00 | 0.00 | 0.00 | 78 | 1009.0 |
| 20260507024339 | 57 | 197 | 2.0 | 5.0 | 0.00 | 0.00 | 0.00 | 78 | 1009.2 |
| 20260507023840 | 57 | 176 | 1.0 | 4.0 | 0.00 | 0.00 | 0.00 | 77 | 1009.0 |
| 20260507022840 | 57 | 197 | 3.0 | 6.0 | 0.00 | 0.00 | 0.00 | 77 | 1009.0 |
| 20260507021853 | 57 | 218 | 1.0 | 5.0 | 0.00 | 0.00 | 0.00 | 78 | 1009.0 |
| 20260507020840 | 57 | 216 | 6.0 | 6.0 | 0.00 | 0.00 | 0.00 | 78 | 1008.9 |
| 20260507020339 | 57 | 246 | 6.0 | 6.0 | 0.00 | 0.00 | 0.00 | 78 | 1009.2 |
| 20260507015840 | 57 | 206 | 2.0 | 6.0 | 0.00 | 0.00 | 0.00 | 78 | 1008.8 |
| 20260507015341 | 57 | 152 | 1.0 | 7.0 | 0.00 | 0.00 | 0.00 | 78 | 1008.8 |
| 20260507014840 | 57 | 228 | 4.0 | 7.0 | 0.00 | 0.00 | 0.00 | 78 | 1008.7 |
| 20260507014340 | 57 | 204 | 2.0 | 5.0 | 0.00 | 0.00 | 0.00 | 78 | 1008.8 |
| 20260507013839 | 57 | 196 | 3.0 | 5.0 | 0.00 | 0.00 | 0.00 | 78 | 1008.8 |
| 20260507013353 | 57 | 207 | 2.0 | 5.0 | 0.00 | 0.00 | 0.00 | 78 | 1008.6 |
| 20260507012839 | 58 | 184 | 4.0 | 4.0 | 0.00 | 0.00 | 0.00 | 78 | 1008.3 |
| 20260507012340 | 58 | 233 | 2.0 | 5.0 | 0.00 | 0.00 | 0.00 | 77 | 1008.4 |
| 20260507011840 | 58 | 212 | 1.0 | 6.0 | 0.00 | 0.00 | 0.00 | 77 | 1008.4 |
| 20260507011353 | 58 | 210 | 3.0 | 6.0 | 0.00 | 0.00 | 0.00 | 76 | 1008.5 |
| 20260507010340 | 59 | 227 | 6.0 | 9.0 | 0.00 | 0.00 | 0.00 | 75 | 1008.4 |
| 20260507005840 | 59 | 217 | 3.0 | 3.0 | 0.00 | 0.00 | 0.00 | 74 | 1008.4 |
| 20260507005340 | 59 | 354 | 1.0 | 3.0 | 0.00 | 0.00 | 0.00 | 73 | 1008.3 |
| 20260507004840 | 59 | 250 | 2.0 | 3.0 | 0.00 | 0.00 | 0.00 | 73 | 1008.3 |
| 20260507004340 | 59 | 197 | 0.0 | 3.0 | 0.00 | 0.00 | 0.00 | 72 | 1008.2 |
| 20260507003840 | 59 | 29 | 0.0 | 4.0 | 0.00 | 0.00 | 0.00 | 71 | 1008.3 |
| 20260507003340 | 59 | 211 | 2.0 | 4.0 | 0.00 | 0.00 | 0.00 | 71 | 1008.2 |
| 20260507002839 | 59 | 243 | 1.0 | 3.0 | 0.00 | 0.00 | 0.00 | 71 | 1007.9 |
| 20260507002340 | 59 | 33 | 0.0 | 3.0 | 0.00 | 0.00 | 0.00 | 71 | 1007.8 |
| 20260507001840 | 60 | 224 | 2.0 | 3.0 | 0.00 | 0.00 | 0.00 | 70 | 1007.8 |
| 20260507001340 | 60 | 180 | 0.0 | 2.0 | 0.00 | 0.00 | 0.00 | 70 | 1007.9 |
| 20260507000840 | 60 | 11 | 0.0 | 3.0 | 0.00 | 0.00 | 0.00 | 70 | 1007.6 |
| 20260507000353 | 60 | 195 | 0.0 | 3.0 | 0.00 | 0.00 | 0.00 | 69 | 1007.9 |
| 20260506235840 | 60 | 232 | 2.0 | 4.0 | 0.00 | 0.00 | 0.00 | 69 | 1007.6 |
| 20260506235340 | 60 | 240 | 2.0 | 5.0 | 0.00 | 0.00 | 0.00 | 69 | 1007.5 |
| 20260506234840 | 60 | 279 | 0.0 | 5.0 | 0.00 | 0.00 | 0.00 | 68 | 1007.6 |
| 20260506232840 | 60 | 314 | 2.0 | 4.0 | 0.00 | 0.00 | 0.00 | 67 | 1007.3 |
| 20260506231840 | 61 | 306 | 1.0 | 4.0 | 0.00 | 0.00 | 0.00 | 66 | 1006.9 |
| 20260506231340 | 61 | 234 | 3.0 | 6.0 | 0.00 | 0.00 | 0.00 | 66 | 1007.0 |
| 20260506230840 | 61 | 278 | 3.0 | 6.0 | 0.00 | 0.00 | 0.00 | 65 | 1007.0 |
| 20260506230340 | 61 | 233 | 2.0 | 6.0 | 0.00 | 0.00 | 0.00 | 65 | 1006.9 |
| 20260506225840 | 62 | 5 | 4.0 | 6.0 | 0.00 | 0.00 | 0.00 | 65 | 1007.1 |
| 20260506225339 | 61 | 137 | 2.0 | 6.0 | 0.00 | 0.00 | 0.00 | 66 | 1007.0 |
| 20260506224840 | 61 | 211 | 0.0 | 5.0 | 0.00 | 0.00 | 0.00 | 67 | 1006.8 |
| 20260506224340 | 61 | 275 | 2.0 | 5.0 | 0.00 | 0.00 | 0.00 | 68 | 1006.8 |
| 20260506223353 | 61 | 7 | 2.0 | 4.0 | 0.00 | 0.00 | 0.00 | 69 | 1006.4 |
| 20260506222839 | 61 | 353 | 2.0 | 4.0 | 0.00 | 0.00 | 0.00 | 69 | 1006.3 |
| 20260506221840 | 62 | 259 | 2.0 | 5.0 | 0.00 | 0.00 | 0.00 | 68 | 1006.3 |
| 20260506221340 | 61 | 351 | 2.0 | 5.0 | 0.00 | 0.00 | 0.00 | 68 | 1006.2 |
| 20260506220840 | 61 | 217 | 2.0 | 5.0 | 0.00 | 0.00 | 0.00 | 68 | 1006.1 |
| 20260506220340 | 62 | 25 | 1.0 | 3.0 | 0.00 | 0.00 | 0.00 | 68 | 1005.9 |
| 20260506215340 | 62 | 236 | 1.0 | 4.0 | 0.00 | 0.00 | 0.00 | 67 | 1005.5 |
| 20260506214841 | 62 | 342 | 2.0 | 4.0 | 0.00 | 0.00 | 0.00 | 66 | 1005.5 |
| 20260506214340 | 63 | 249 | 3.0 | 4.0 | 0.00 | 0.00 | 0.00 | 66 | 1005.6 |
| 20260506213840 | 63 | 255 | 2.0 | 4.0 | 0.00 | 0.00 | 0.00 | 65 | 1005.4 |
| 20260506212840 | 63 | 241 | 2.0 | 9.0 | 0.00 | 0.00 | 0.00 | 64 | 1005.3 |
| 20260506212340 | 62 | 265 | 6.0 | 9.0 | 0.00 | 0.00 | 0.00 | 65 | 1005.5 |
| 20260506211840 | 63 | 227 | 2.0 | 4.0 | 0.00 | 0.00 | 0.00 | 65 | 1004.5 |
| 20260506210841 | 63 | 162 | 2.0 | 6.0 | 0.00 | 0.00 | 0.00 | 64 | 1004.5 |
| 20260506210340 | 63 | 184 | 3.0 | 5.0 | 0.00 | 0.00 | 0.00 | 64 | 1004.5 |
| 20260506205839 | 64 | 170 | 4.0 | 5.0 | 0.00 | 0.00 | 0.00 | 63 | 1004.2 |
| 20260506205340 | 64 | 241 | 0.0 | 4.0 | 0.00 | 0.00 | 0.00 | 63 | 1004.4 |
| 20260506204840 | 64 | 255 | 0.0 | 4.0 | 0.00 | 0.00 | 0.00 | 62 | 1004.3 |
| 20260506204340 | 64 | 219 | 2.0 | 3.0 | 0.00 | 0.00 | 0.00 | 62 | 1004.4 |
| 20260506203839 | 64 | 87 | 0.0 | 5.0 | 0.00 | 0.00 | 0.00 | 61 | 1004.1 |
| 20260506203339 | 65 | 11 | 0.0 | 6.0 | 0.00 | 0.00 | 0.00 | 61 | 1004.2 |
| 20260506202840 | 65 | 0 | 0.0 | 6.0 | 0.00 | 0.00 | 0.00 | 60 | 1004.2 |
| 20260506202340 | 65 | 195 | 1.0 | 7.0 | 0.00 | 0.00 | 0.00 | 60 | 1004.1 |
| 20260506201840 | 65 | 216 | 4.0 | 8.0 | 0.00 | 0.00 | 0.00 | 59 | 1004.1 |
| 20260506201340 | 66 | 230 | 4.0 | 12.0 | 0.00 | 0.00 | 0.00 | 59 | 1003.9 |
| 20260506200840 | 66 | 178 | 6.0 | 12.0 | 0.00 | 0.00 | 0.00 | 58 | 1003.7 |
| 20260506200353 | 66 | 180 | 3.0 | 9.0 | 0.00 | 0.00 | 0.00 | 58 | 1003.9 |
| 20260506195840 | 66 | 198 | 4.0 | 9.0 | 0.00 | 0.00 | 0.00 | 58 | 1003.8 |
| 20260506195340 | 66 | 199 | 7.0 | 9.0 | 0.00 | 0.00 | 0.00 | 58 | 1003.5 |
| 20260506194840 | 66 | 211 | 5.0 | 9.0 | 0.00 | 0.00 | 0.00 | 57 | 1003.9 |
| 20260506194341 | 66 | 215 | 6.0 | 9.0 | 0.00 | 0.00 | 0.00 | 58 | 1003.8 |
| 20260506193839 | 66 | 231 | 3.0 | 7.0 | 0.00 | 0.00 | 0.00 | 58 | 1003.6 |
| 20260506193340 | 66 | 208 | 1.0 | 6.0 | 0.00 | 0.00 | 0.00 | 58 | 1003.3 |
| 20260506192840 | 66 | 225 | 3.0 | 5.0 | 0.00 | 0.00 | 0.00 | 57 | 1003.5 |
| 20260506192354 | 67 | 164 | 1.0 | 8.0 | 0.00 | 0.00 | 0.00 | 57 | 1003.0 |
| 20260506191840 | 67 | 214 | 4.0 | 8.0 | 0.00 | 0.00 | 0.00 | 56 | 1003.2 |
| 20260506191340 | 68 | 193 | 2.0 | 5.0 | 0.00 | 0.00 | 0.00 | 55 | 1003.3 |
| 20260506190840 | 68 | 199 | 3.0 | 7.0 | 0.00 | 0.00 | 0.00 | 54 | 1003.2 |
| 20260506190352 | 68 | 185 | 1.0 | 8.0 | 0.00 | 0.00 | 0.00 | 54 | 1003.2 |
| 20260506185341 | 68 | 192 | 5.0 | 9.0 | 0.00 | 0.00 | 0.00 | 54 | 1002.9 |
| 20260506184840 | 69 | 169 | 2.0 | 8.0 | 0.00 | 0.00 | 0.00 | 54 | 1003.0 |
| 20260506184340 | 69 | 198 | 4.0 | 8.0 | 0.00 | 0.00 | 0.00 | 54 | 1003.3 |
| 20260506183839 | 69 | 194 | 2.0 | 6.0 | 0.00 | 0.00 | 0.00 | 53 | 1002.9 |
| 20260506183340 | 69 | 192 | 5.0 | 9.0 | 0.00 | 0.00 | 0.00 | 52 | 1002.8 |
| 20260506182840 | 70 | 223 | 2.0 | 10.0 | 0.00 | 0.00 | 0.00 | 52 | 1002.8 |
| 20260506182339 | 70 | 199 | 5.0 | 12.0 | 0.00 | 0.00 | 0.00 | 51 | 1002.6 |
| 20260506181340 | 70 | 150 | 2.0 | 13.0 | 0.00 | 0.00 | 0.00 | 51 | 1002.4 |
| 20260506180340 | 71 | 213 | 4.0 | 9.0 | 0.00 | 0.00 | 0.00 | 51 | 1002.2 |
| 20260506175839 | 71 | 237 | 3.0 | 12.0 | 0.00 | 0.00 | 0.00 | 50 | 1002.4 |
| 20260506175340 | 71 | 199 | 8.0 | 12.0 | 0.00 | 0.00 | 0.00 | 50 | 1002.1 |
| 20260506174340 | 72 | 232 | 4.0 | 7.0 | 0.00 | 0.00 | 0.00 | 49 | 1002.3 |
| 20260506173840 | 72 | 218 | 4.0 | 11.0 | 0.00 | 0.00 | 0.00 | 49 | 1002.3 |
| 20260506173340 | 72 | 162 | 3.0 | 11.0 | 0.00 | 0.00 | 0.00 | 49 | 1002.4 |
| 20260506172840 | 72 | 205 | 5.0 | 15.0 | 0.00 | 0.00 | 0.00 | 48 | 1002.3 |
| 20260506165840 | 74 | 180 | 6.0 | 18.0 | 0.00 | 0.00 | 0.00 | 47 | 1002.3 |
| 20260506165340 | 74 | 198 | 9.0 | 18.0 | 0.00 | 0.00 | 0.00 | 46 | 1002.4 |
| 20260506164840 | 74 | 191 | 6.0 | 19.0 | 0.00 | 0.00 | 0.00 | 45 | 1002.2 |
| 20260506164340 | 74 | 210 | 10.0 | 19.0 | 0.00 | 0.00 | 0.00 | 45 | 1002.6 |
| 20260506163840 | 75 | 194 | 3.0 | 17.0 | 0.00 | 0.00 | 0.00 | 45 | 1002.4 |
| 20260506162840 | 75 | 209 | 7.0 | 17.0 | 0.00 | 0.00 | 0.00 | 44 | 1002.2 |
| 20260506162340 | 75 | 196 | 3.0 | 16.0 | 0.00 | 0.00 | 0.00 | 44 | 1002.4 |
| 20260506161853 | 76 | 205 | 5.0 | 17.0 | 0.00 | 0.00 | 0.00 | 43 | 1002.5 |
| 20260506160841 | 76 | 213 | 6.0 | 14.0 | 0.00 | 0.00 | 0.00 | 42 | 1002.7 |
| 20260506160340 | 76 | 201 | 11.0 | 14.0 | 0.00 | 0.00 | 0.00 | 42 | 1002.6 |
| 20260506155840 | 77 | 193 | 7.0 | 13.0 | 0.00 | 0.00 | 0.00 | 41 | 1002.6 |
| 20260506155340 | 77 | 167 | 3.0 | 12.0 | 0.00 | 0.00 | 0.00 | 41 | 1002.6 |
| 20260506154840 | 77 | 168 | 2.0 | 14.0 | 0.00 | 0.00 | 0.00 | 41 | 1002.7 |
| 20260506154340 | 77 | 162 | 9.0 | 16.0 | 0.00 | 0.00 | 0.00 | 41 | 1002.6 |
| 20260506153340 | 78 | 166 | 5.0 | 13.0 | 0.00 | 0.00 | 0.00 | 40 | 1002.5 |
| 20260506152840 | 78 | 175 | 2.0 | 13.0 | 0.00 | 0.00 | 0.00 | 40 | 1002.5 |
| 20260506152340 | 77 | 161 | 5.0 | 17.0 | 0.00 | 0.00 | 0.00 | 40 | 1002.6 |
| 20260506151840 | 77 | 155 | 7.0 | 17.0 | 0.00 | 0.00 | 0.00 | 40 | 1002.8 |
| 20260506151340 | 77 | 196 | 9.0 | 18.0 | 0.00 | 0.00 | 0.00 | 40 | 1002.9 |
| 20260506150840 | 78 | 203 | 13.0 | 18.0 | 0.00 | 0.00 | 0.00 | 40 | 1003.0 |
| 20260506150340 | 78 | 180 | 4.0 | 13.0 | 0.00 | 0.00 | 0.00 | 40 | 1002.9 |
| 20260506145840 | 78 | 197 | 4.0 | 11.0 | 0.00 | 0.00 | 0.00 | 40 | 1002.9 |
| 20260506145340 | 78 | 225 | 8.0 | 11.0 | 0.00 | 0.00 | 0.00 | 40 | 1003.1 |
| 20260506144840 | 77 | 187 | 5.0 | 11.0 | 0.00 | 0.00 | 0.00 | 40 | 1002.9 |
| 20260506143840 | 78 | 324 | 2.0 | 12.0 | 0.00 | 0.00 | 0.00 | 40 | 1003.1 |
| 20260506143340 | 77 | 198 | 5.0 | 15.0 | 0.00 | 0.00 | 0.00 | 40 | 1003.3 |
| 20260506142840 | 77 | 151 | 6.0 | 15.0 | 0.00 | 0.00 | 0.00 | 40 | 1003.3 |
| 20260506142340 | 77 | 180 | 5.0 | 16.0 | 0.00 | 0.00 | 0.00 | 40 | 1003.5 |
| 20260506141840 | 77 | 169 | 9.0 | 16.0 | 0.00 | 0.00 | 0.00 | 40 | 1003.3 |
| 20260506140840 | 77 | 160 | 5.0 | 18.0 | 0.00 | 0.00 | 0.00 | 39 | 1003.5 |
| 20260506134840 | 76 | 160 | 11.0 | 17.0 | 0.00 | 0.00 | 0.00 | 42 | 1003.7 |
| 20260506134340 | 76 | 109 | 9.0 | 17.0 | 0.00 | 0.00 | 0.00 | 42 | 1003.9 |
| 20260506133840 | 76 | 170 | 10.0 | 16.0 | 0.00 | 0.00 | 0.00 | 42 | 1003.6 |
| 20260506133340 | 76 | 192 | 5.0 | 19.0 | 0.00 | 0.00 | 0.00 | 43 | 1004.1 |
| 20260506132840 | 76 | 93 | 9.0 | 19.0 | 0.00 | 0.00 | 0.00 | 42 | 1004.0 |
| 20260506132340 | 77 | 188 | 7.0 | 16.0 | 0.00 | 0.00 | 0.00 | 41 | 1004.2 |
| 20260506131840 | 77 | 211 | 9.0 | 16.0 | 0.00 | 0.00 | 0.00 | 41 | 1004.5 |
| 20260506131339 | 77 | 181 | 4.0 | 16.0 | 0.00 | 0.00 | 0.00 | 41 | 1004.6 |
| 20260506130841 | 76 | 151 | 5.0 | 18.0 | 0.00 | 0.00 | 0.00 | 42 | 1004.8 |
| 20260506130340 | 75 | 202 | 9.0 | 18.0 | 0.00 | 0.00 | 0.00 | 42 | 1004.8 |
| 20260506125840 | 77 | 166 | 10.0 | 17.0 | 0.00 | 0.00 | 0.00 | 41 | 1005.0 |
| 20260506125340 | 77 | 230 | 6.0 | 14.0 | 0.00 | 0.00 | 0.00 | 41 | 1004.8 |
| 20260506124839 | 77 | 211 | 4.0 | 14.0 | 0.00 | 0.00 | 0.00 | 41 | 1005.0 |
| 20260506124340 | 77 | 112 | 8.0 | 15.0 | 0.00 | 0.00 | 0.00 | 42 | 1005.2 |
| 20260506123840 | 78 | 188 | 6.0 | 15.0 | 0.00 | 0.00 | 0.00 | 41 | 1005.2 |
| 20260506123341 | 78 | 140 | 6.0 | 14.0 | 0.00 | 0.00 | 0.00 | 41 | 1005.1 |
| 20260506122840 | 78 | 213 | 5.0 | 16.0 | 0.00 | 0.00 | 0.00 | 40 | 1005.1 |
| 20260506122341 | 77 | 234 | 9.0 | 16.0 | 0.00 | 0.00 | 0.00 | 42 | 1005.3 |
| 20260506121840 | 77 | 210 | 2.0 | 13.0 | 0.00 | 0.00 | 0.00 | 42 | 1005.3 |
| 20260506121341 | 76 | 180 | 11.0 | 13.0 | 0.00 | 0.00 | 0.00 | 43 | 1005.3 |
| 20260506120839 | 76 | 185 | 10.0 | 13.0 | 0.00 | 0.00 | 0.00 | 42 | 1005.4 |
| 20260506120341 | 76 | 200 | 13.0 | 17.0 | 0.00 | 0.00 | 0.00 | 43 | 1005.6 |
| 20260506115340 | 76 | 196 | 8.0 | 20.0 | 0.00 | 0.00 | 0.00 | 43 | 1005.7 |
| 20260506114840 | 76 | 138 | 8.0 | 17.0 | 0.00 | 0.00 | 0.00 | 44 | 1005.8 |
| 20260506114340 | 76 | 171 | 16.0 | 16.0 | 0.00 | 0.00 | 0.00 | 43 | 1005.9 |
| 20260506113841 | 76 | 194 | 6.0 | 19.0 | 0.00 | 0.00 | 0.00 | 42 | 1006.1 |
| 20260506113340 | 76 | 209 | 13.0 | 23.0 | 0.00 | 0.00 | 0.00 | 43 | 1005.9 |
| 20260506112840 | 76 | 164 | 9.0 | 23.0 | 0.00 | 0.00 | 0.00 | 43 | 1006.2 |
| 20260506112340 | 76 | 253 | 3.0 | 18.0 | 0.00 | 0.00 | 0.00 | 43 | 1006.0 |
| 20260506111340 | 75 | 167 | 12.0 | 17.0 | 0.00 | 0.00 | 0.00 | 47 | 1006.0 |
| 20260506110840 | 74 | 174 | 4.0 | 19.0 | 0.00 | 0.00 | 0.00 | 47 | 1006.0 |
| 20260506110340 | 75 | 180 | 3.0 | 19.0 | 0.00 | 0.00 | 0.00 | 45 | 1006.1 |
| 20260506105840 | 75 | 194 | 5.0 | 19.0 | 0.00 | 0.00 | 0.00 | 45 | 1006.3 |
| 20260506105340 | 76 | 188 | 8.0 | 16.0 | 0.00 | 0.00 | 0.00 | 43 | 1006.4 |
| 20260506103840 | 75 | 97 | 9.0 | 17.0 | 0.00 | 0.00 | 0.00 | 46 | 1006.4 |
| 20260506102839 | 76 | 99 | 4.0 | 16.0 | 0.00 | 0.00 | 0.00 | 44 | 1006.3 |
| 20260506102340 | 75 | 212 | 9.0 | 16.0 | 0.00 | 0.00 | 0.00 | 45 | 1006.8 |
| 20260506101840 | 75 | 129 | 4.0 | 9.0 | 0.00 | 0.00 | 0.00 | 44 | 1006.8 |
| 20260506101340 | 75 | 219 | 4.0 | 13.0 | 0.00 | 0.00 | 0.00 | 44 | 1006.8 |
| 20260506100839 | 75 | 164 | 7.0 | 13.0 | 0.00 | 0.00 | 0.00 | 45 | 1006.8 |
| 20260506100353 | 75 | 151 | 4.0 | 13.0 | 0.00 | 0.00 | 0.00 | 45 | 1007.1 |
| 20260506095840 | 74 | 231 | 4.0 | 9.0 | 0.00 | 0.00 | 0.00 | 46 | 1006.8 |
| 20260506095339 | 74 | 186 | 2.0 | 9.0 | 0.00 | 0.00 | 0.00 | 47 | 1007.2 |
| 20260506094340 | 75 | 213 | 4.0 | 8.0 | 0.00 | 0.00 | 0.00 | 45 | 1007.3 |
| 20260506093840 | 74 | 203 | 5.0 | 12.0 | 0.00 | 0.00 | 0.00 | 45 | 1006.9 |
| 20260506093340 | 75 | 210 | 4.0 | 12.0 | 0.00 | 0.00 | 0.00 | 44 | 1007.1 |
| 20260506092340 | 75 | 167 | 3.0 | 7.0 | 0.00 | 0.00 | 0.00 | 43 | 1007.2 |
| 20260506091839 | 75 | 124 | 1.0 | 7.0 | 0.00 | 0.00 | 0.00 | 43 | 1006.8 |
| 20260506091339 | 75 | 185 | 4.0 | 7.0 | 0.00 | 0.00 | 0.00 | 42 | 1007.4 |
| 20260506090840 | 75 | 184 | 2.0 | 8.0 | 0.00 | 0.00 | 0.00 | 43 | 1007.2 |
| 20260506090340 | 75 | 173 | 6.0 | 8.0 | 0.00 | 0.00 | 0.00 | 43 | 1007.1 |
| 20260506085840 | 74 | 203 | 5.0 | 6.0 | 0.00 | 0.00 | 0.00 | 42 | 1007.2 |
| 20260506084840 | 74 | 183 | 2.0 | 6.0 | 0.00 | 0.00 | 0.00 | 44 | 1007.2 |
| 20260506084340 | 74 | 188 | 3.0 | 6.0 | 0.00 | 0.00 | 0.00 | 43 | 1007.1 |
| 20260506083841 | 74 | 215 | 2.0 | 6.0 | 0.00 | 0.00 | 0.00 | 44 | 1007.2 |
| 20260506083340 | 75 | 196 | 2.0 | 5.0 | 0.00 | 0.00 | 0.00 | 43 | 1007.4 |
| 20260506082840 | 74 | 73 | 2.0 | 3.0 | 0.00 | 0.00 | 0.00 | 46 | 1007.2 |
| 20260506082340 | 75 | 225 | 2.0 | 7.0 | 0.00 | 0.00 | 0.00 | 43 | 1007.5 |
| 20260506081840 | 73 | 106 | 0.0 | 7.0 | 0.00 | 0.00 | 0.00 | 44 | 1007.3 |
| 20260506081340 | 73 | 188 | 0.0 | 6.0 | 0.00 | 0.00 | 0.00 | 48 | 1007.5 |
| 20260506080339 | 72 | 306 | 2.0 | 8.0 | 0.00 | 0.00 | 0.00 | 48 | 1007.8 |
| 20260506073340 | 71 | 216 | 2.0 | 6.0 | 0.00 | 0.00 | 0.00 | 54 | 1008.1 |
| 20260506072840 | 71 | 245 | 3.0 | 9.0 | 0.00 | 0.00 | 0.00 | 54 | 1008.0 |
| 20260506072340 | 70 | 245 | 2.0 | 9.0 | 0.00 | 0.00 | 0.00 | 56 | 1007.9 |
| 20260506071341 | 69 | 233 | 6.0 | 9.0 | 0.00 | 0.00 | 0.00 | 58 | 1008.1 |
| 20260506070841 | 69 | 249 | 1.0 | 7.0 | 0.00 | 0.00 | 0.00 | 58 | 1008.1 |
| 20260506070340 | 67 | 230 | 6.0 | 9.0 | 0.00 | 0.00 | 0.00 | 60 | 1008.1 |
| 20260506061840 | 65 | 176 | 2.0 | 7.0 | 0.00 | 0.00 | 0.00 | 69 | 1007.9 |
| 20260506061341 | 64 | 235 | 4.0 | 7.0 | 0.00 | 0.00 | 0.00 | 70 | 1008.1 |
| 20260506060340 | 64 | 205 | 4.0 | 8.0 | 0.00 | 0.00 | 0.00 | 70 | 1008.0 |
| 20260506051339 | 59 | 223 | 7.0 | 10.0 | 0.00 | 0.00 | 0.00 | 81 | 1007.9 |
| 20260506050840 | 58 | 232 | 4.0 | 6.0 | 0.00 | 0.00 | 0.00 | 83 | 1008.0 |
| 20260506050340 | 58 | 231 | 2.0 | 8.0 | 0.00 | 0.00 | 0.00 | 84 | 1008.0 |
| 20260506044840 | 58 | 198 | 5.0 | 7.0 | 0.00 | 0.00 | 0.00 | 84 | 1007.7 |
| 20260506043339 | 57 | 230 | 3.0 | 6.0 | 0.00 | 0.00 | 0.00 | 84 | 1007.8 |
| 20260506042840 | 57 | 201 | 5.0 | 6.0 | 0.00 | 0.00 | 0.00 | 84 | 1007.7 |